Weather History for KGLS - September, 2013

Change the Weather History Date:

Saturday, September 14, 2013

  Actual Average Record
Temperature  
Mean Temperature 84 °F 82 °F  
Max Temperature 89 °F 88 °F 93 °F (1900)
Min Temperature 79 °F 76 °F 62 °F (1913)
Degree Days  
Heating Degree Days 0 0  
Month to date heating degree days 0 0  
Since 1 July heating degree days 0 0  
Cooling Degree Days 19 17  
Month to date cooling degree days 267 255  
Year to date cooling degree days 2661 2649  
Growing Degree Days 34 (Base 50)    
Moisture  
Dew Point 76 °F    
Average Humidity 83    
Maximum Humidity 97    
Minimum Humidity 68    
Precipitation  
Precipitation 0.00 in 0.22 in 2.38 in (1907)
Month to date precipitation 0.75 3.34  
Year to date precipitation 24.98 34.52  
Snow  
Snow 0.00 in - - ()
Month to date snowfall 0.0  
Since 1 July snowfall 0.0  
Since 1 September snowfall 0.0  
Snow Depth 0.00 in    
Sea Level Pressure  
Sea Level Pressure 29.89 in    
Wind  
Wind Speed 10 mph (East)    
Max Wind Speed 16 mph    
Max Gust Speed 22 mph    
Visibility 10 miles    
Events      
T = Trace of Precipitation, MM = Missing Value Source: NWS Daily Summary

Daily Weather History Graph

Daily Weather History Graph

Search for Another Location

Airport or City:

Trip Planner

Search our weather history database for the weather conditions in past years. The results will help you decide how hot, cold, wet, or windy it might be!

Date:

Astronomy

Sep. 14, 2013 Rise Set
Actual Time 7:03 AM CDT 7:25 PM CDT
Civil Twilight 6:40 AM CDT 7:49 PM CDT
Nautical Twilight 6:12 AM CDT 8:17 PM CDT
Astronomical Twilight 5:43 AM CDT 8:45 PM CDT
Moon 3:50 PM CDT (9/14) 1:55 AM CDT (9/14)
Length of Visible Light 13h 09m
Length of Day
12h 21m
Waxing Gibbous, 72% of the Moon is Illuminated
Sep 14
Waxing Gibbous
Sep 19
Full
Sep 26
Last Quarter
Oct 4
New
Oct 11
First Quarter

Hourly Weather History & Observations

Time (CDT) Temp. Heat Index Dew Point Humidity Pressure Visibility Wind Dir Wind Speed Gust Speed Precip Events Conditions
12:52 AM 80.1 °F 85.4 °F 75.9 °F 87% 29.86 in 10.0 mi SE 9.2 mph - N/A   Partly Cloudy
1:52 AM 80.1 °F 85.4 °F 75.9 °F 87% 29.86 in 10.0 mi SE 6.9 mph - N/A   Clear
2:52 AM 80.1 °F 85.1 °F 75.0 °F 85% 29.86 in 10.0 mi ESE 5.8 mph - N/A   Scattered Clouds
3:52 AM 80.1 °F 85.1 °F 75.0 °F 85% 29.86 in 10.0 mi Calm Calm - N/A   Clear
4:52 AM 80.1 °F 85.1 °F 75.0 °F 85% 29.86 in 10.0 mi East 3.5 mph - N/A   Partly Cloudy
5:52 AM 79.0 °F - 75.0 °F 88% 29.87 in 10.0 mi NE 3.5 mph - N/A   Partly Cloudy
6:52 AM 79.0 °F - 77.0 °F 94% 29.87 in 10.0 mi NNE 5.8 mph - N/A   Clear
7:52 AM 80.1 °F 85.8 °F 77.0 °F 90% 29.89 in 10.0 mi NNE 10.4 mph - N/A   Partly Cloudy
8:52 AM 82.0 °F 90.2 °F 77.0 °F 85% 29.90 in 10.0 mi NE 9.2 mph - N/A   Scattered Clouds
9:36 AM 82.4 °F 90.9 °F 77.0 °F 84% 29.91 in 10.0 mi NE 10.4 mph - N/A   Mostly Cloudy
9:52 AM 84.9 °F 96.6 °F 78.1 °F 80% 29.91 in 10.0 mi NNE 12.7 mph - N/A   Mostly Cloudy
10:41 AM 84.2 °F 94.1 °F 77.0 °F 79% 29.92 in 10.0 mi ENE 11.5 mph - N/A   Scattered Clouds
10:52 AM 87.1 °F 99.8 °F 78.1 °F 74% 29.92 in 10.0 mi NE 12.7 mph - N/A   Scattered Clouds
11:52 AM 87.1 °F 97.3 °F 75.9 °F 69% 29.92 in 10.0 mi East 12.7 mph - N/A   Scattered Clouds
12:52 PM 87.1 °F 97.3 °F 75.9 °F 69% 29.92 in 10.0 mi ENE 12.7 mph - N/A   Scattered Clouds
1:52 PM 88.0 °F 98.5 °F 75.9 °F 67% 29.90 in 10.0 mi East 13.8 mph 21.9 mph N/A   Partly Cloudy
2:52 PM 88.0 °F 100.2 °F 77.0 °F 70% 29.89 in 10.0 mi East 11.5 mph - N/A   Partly Cloudy
3:52 PM 87.1 °F 96.3 °F 75.0 °F 67% 29.87 in 10.0 mi East 12.7 mph - N/A   Clear
4:52 PM 87.1 °F 96.3 °F 75.0 °F 67% 29.86 in 10.0 mi ESE 15.0 mph - N/A   Clear
5:52 PM 84.9 °F 95.3 °F 77.0 °F 77% 29.86 in 10.0 mi ESE 12.7 mph - N/A   Clear
6:52 PM 84.0 °F 91.9 °F 75.0 °F 74% 29.88 in 10.0 mi ESE 13.8 mph - N/A   Clear
7:52 PM 82.9 °F 89.4 °F 73.9 °F 74% 29.90 in 10.0 mi ESE 13.8 mph - N/A   Clear
8:52 PM 82.9 °F 90.2 °F 75.0 °F 77% 29.91 in 10.0 mi ESE 11.5 mph - N/A   Clear
9:52 PM 82.9 °F 89.4 °F 73.9 °F 74% 29.92 in 10.0 mi East 8.1 mph - N/A   Clear
10:52 PM 82.0 °F 87.9 °F 73.9 °F 76% 29.92 in 10.0 mi ESE 11.5 mph - N/A   Clear
11:52 PM 82.0 °F 88.6 °F 75.0 °F 79% 29.92 in 10.0 mi ESE 10.4 mph - N/A   Clear